Regional Weather Roundup
Issued by NWS

Home | Current Version | Previous Version | Text Only | Print | Product List | Glossary Off
Versions: 1 2 3 4 5 6 7 8 9 10 11 12 13 14 15 16 17 18 19 20 21 22 23 24 25 26 27 28 29 30 31 32 33 34 35 36 37 38 39 40 41 42 43 44 45 46 47 48 49 50

000
ASUS43 KMPX 282001
RWRMN
WEATHER ROUNDUP FOR MINNESOTA
NATIONAL WEATHER SERVICE TWIN CITIES/CHANHASSEN MN
300 PM CDT WED SEP 28 2016


NOTE: "FAIR" INDICATES FEW OR NO CLOUDS BELOW 12,000 FEET WITH NO
SIGNIFICANT WEATHER AND/OR OBSTRUCTIONS TO VISIBILITY. N/A MEANS
CURRENT SKY AND/OR WEATHER CONDITIONS ARE NOT AVAILABLE.

MNZ060>063-068>070-282100-
   Twin Cities Metro

CITY           SKY/WX    TMP DP  RH WIND       PRES   REMARKS
TWIN CITIES    CLOUDY    61  49  64 N12G25    30.21R
ST PAUL        CLOUDY    61  50  67 N12G20    30.21R
CRYSTAL        CLOUDY    60  47  61 N12       30.22R
BLAINE         CLOUDY    61  52  72 N14G21    30.22R
LAKEVILLE      CLOUDY    59  48  67 N9G16     30.20R
EDEN PRAIRIE   CLOUDY    61  49  64 N13G18    30.21R
LAKEVILLE      CLOUDY    59  48  67 N9G16     30.20R
SOUTH ST PAUL  PTSUNNY   63  49  61 N13       30.20R
LAKE ELMO      CLOUDY    61  52  72 N10       30.21R
$$
MNZ001>005-007-008-013>017-022>024-027-028-282100-
   Northwest Minnesota

CITY           SKY/WX    TMP DP  RH WIND       PRES   REMARKS
BEMIDJI        CLOUDY    56  47  72 NE8       30.31R
HALLOCK        PTSUNNY   59  48  67 CALM      30.33R
ROSEAU         CLOUDY    57  50  77 NW3       30.33R
THIEF RVR FALL CLOUDY    59  48  67 N3        30.33R
CROOKSTON      CLOUDY    59  46  63 CALM      30.33R
FOSSTON        CLOUDY    57  52  82 N7        30.32R
DETROIT LAKES  PTSUNNY   59  46  63 E6        30.31S
MOORHEAD       PTSUNNY   63  48  59 N9        30.31R
PARK RAPIDS    CLOUDY    60  43  53 NE7       30.29R
MAHNOMEN       FAIR      59  47  64 NE7       30.30R HAZE
$$
MNZ006-009>011-018-025>026-282100-
   North Central Minnesota

CITY           SKY/WX    TMP DP  RH WIND       PRES   REMARKS
BAUDETTE       CLOUDY    58  49  72 NW9       30.32R
FLAG ISLAND    CLOUDY    57  48  72 CALM      30.32R
INTL FALLS     MOSUNNY   58  48  69 N9        30.31S
WASKISH        CLOUDY    59  50  72 NE3       30.31S
BIG FORK       CLOUDY    57  46  67 N6        30.30R
LONGVILLE      CLOUDY    57  46  67 NE5       30.29R
GRAND RAPIDS   CLOUDY    57  46  66 VRB6      30.30R
COOK           CLOUDY    57  48  72 NE3       30.29S
WALKER         CLOUDY    56  46  68 N5        30.30R
$$
MNZ012-019>021-037-282100-
   Northeast Minnesota

CITY           SKY/WX    TMP DP  RH WIND       PRES   REMARKS
DULUTH         CLOUDY    57  49  74 E5        30.26R
ELY            CLOUDY    55  46  71 NE5       30.28R
HIBBING        CLOUDY    57  47  69 N6        30.28R
EVELETH        CLOUDY    58  46  65 NE6       30.28S
DULUTH HARBOR  CLOUDY    57  52  82 NE13      30.26R
TWO HARBORS    CLOUDY    61  52  72 E7        30.24R
SILVER BAY     CLOUDY    59  50  72 E5        30.24R
GRAND MARAIS     N/A     62  39  42 NE8       30.24R
G MARAIS ARPRT CLOUDY    54  45  71 N12       30.27R
$$
MNZ029>031-032-039>041-046>048-054>057-064-282100-
   West Central Minnesota

CITY           SKY/WX    TMP DP  RH WIND       PRES   REMARKS
FERGUS FALLS   PTSUNNY   61  48  63 E7        30.31S
MORRIS         MOSUNNY   64  46  52 NE8       30.26S
ALEXANDRIA     PTSUNNY   61  47  59 N9        30.29S
ELBOW LAKE     PTSUNNY   59  46  63 NE7       30.29R
WADENA         CLOUDY    59  46  63 N7        30.28R
GLENWOOD       MOSUNNY   63  48  59 N12       30.27S
BENSON         PTSUNNY   64  45  48 NE9       30.26S
ORTONVILLE     PTSUNNY   61  46  59 N8        30.28F
MADISON        PTSUNNY   63  48  59 NE9       30.27F
WILLMAR        PTSUNNY   64  48  55 NE9       30.27R
$$
MNZ033>034-036-042>043-049>051-058-059-282100-
   Central Minnesota

CITY           SKY/WX    TMP DP  RH WIND       PRES   REMARKS
ST CLOUD       PTSUNNY   63  49  60 NE14      30.25R
SAUK CENTRE    CLOUDY    60  47  62 NE12      30.27R
PAYNESVILLE    CLOUDY    61  46  57 NE9       30.27R
AITKIN         CLOUDY    61  45  55 N7        30.27R
PINE RIVER     CLOUDY    57  48  72 NE9       30.31R
BRAINERD       CLOUDY    58  46  64 N8        30.28R
STAPLES        CLOUDY    59  46  63 N8        30.28R
LONG PRAIRIE   CLOUDY    59  46  63 N8        30.28R
LITTLE FALLS   CLOUDY    59  46  63 N5        30.27R
LITCHFIELD     PTSUNNY   64  50  59 NE12      30.25R
BUFFALO        CLOUDY    59  48  66 N7        30.25R
MAPLE LAKE     CLOUDY    60  51  72 N10G16    30.25S
HUTCHINSON     CLOUDY    62  50  66 N6G12     30.25R
$$
MNZ037-044-045-052-053-282100-
   East Central Minnesota

CITY           SKY/WX    TMP DP  RH WIND       PRES   REMARKS
PRINCETON      CLOUDY    61  50  67 N13G20    30.25R
MORA           CLOUDY    57  45  62 NE6       30.27R
CAMBRIDGE      CLOUDY    63  48  59 NE9       30.22S
MOOSE LAKE     CLOUDY    59  46  63 N7        30.24R
HINCKLEY       CLOUDY    59  50  72 NE8       30.25R
CLOQUET        CLOUDY    57  46  67 N6        30.26R
MCGREGOR       CLOUDY    59  46  63 NE9       30.28R
$$
MNZ071>073-080-081-089-090-097-098-282100-
   Southwest Minnesota

CITY           SKY/WX    TMP DP  RH WIND       PRES   REMARKS
MONTEVIDEO     PTSUNNY   66  46  48 NE10G18   30.28R
GRANITE FALLS  PTSUNNY   65  50  60 NW8       30.27S
CANBY          PTSUNNY   60  48  65 N8        30.29S
MARSHALL       CLOUDY    59  47  64 N9        30.27S
REDWOOD FALLS  CLOUDY    64  46  52 N12G17    30.23S
OLIVIA         PTSUNNY   63  46  55 N6G17     30.24R
PIPESTONE      MOSUNNY   57  45  62 NE10G17   30.27R
WINDOM         PTSUNNY   63  46  55 N13G21    30.23S
WORTHINGTON    CLOUDY    57  46  66 N15       30.25R
JACKSON        CLOUDY    61  45  55 N17G24    30.23R
TRACY          PTSUNNY   62  49  62 N10       30.26S
$$
MNZ065>067-074>077-082>085-091>093-282100-
   South Central Minnesota

CITY           SKY/WX    TMP DP  RH WIND       PRES   REMARKS
MANKATO        CLOUDY    59  49  69 N15G22    30.22R
ST JAMES       CLOUDY    61  46  59 N10G17    30.24R
FAIRMONT       CLOUDY    60  46  59 NE13G20   30.22R
GLENCOE        CLOUDY    61  52  72 N9G17     30.24R
FARIBAULT      CLOUDY    63  50  63 NW13G20   30.20R
OWATONNA       PTSUNNY   61  48  63 N16G22    30.19R
WASECA         CLOUDY    59  46  63 N16       30.21S
ALBERT LEA     CLOUDY    61  48  63 N15       30.18R
$$
MNZ078>079-086>088-094>096-282100-
   Southeast Minnesota

CITY           SKY/WX    TMP DP  RH WIND       PRES   REMARKS
ROCHESTER      CLOUDY    60  50  69 N18       30.16R
RED WING       PTSUNNY   66  48  52 N13G18    30.15R
STANTON        CLOUDY    63  49  62 N14G20    30.18R
DODGE CENTER   CLOUDY    61  48  63 N14       30.16R
WINONA         CLOUDY    61  46  59 N7G16     30.14R
AUSTIN         CLOUDY    61  48  63 N12G17    30.16R
PRESTON        CLOUDY    57  48  72 N12G17    30.14R
$$
ABBREVIATIONS USED IN REMARKS
   TC - TEMPERATURES IN CELSIUS
  WCI - WIND CHILL INDEX
   HX - HEAT INDEX
  VSB - VISIBILITY
$$




USA.gov is the U.S. government's official web portal to all federal, state and local government web resources and services.